Location: Hall+in+Tirol
(47.2830°N, 11.5170°E)
Time: 22:01:12
(UTC+02:00)

Gurwin Techsat 1B - Visible Passes

Search period start: 20 September 2014 00:00
Search period end: 30 September 2014 00:00
Orbit: 812 x 815 km, 98.5° (Epoch: 18 September)

Date Brightness Start Highest point End Pass type
(mag) Time Alt. Az. Time Alt. Az. Time Alt. Az.
20 Sep 9.7 03:34:35 10° NNE 03:39:32 38° E 03:39:59 37° ESE visible
20 Sep 9.4 05:14:41 10° N 05:19:27 34° WNW 05:21:12 27° W visible
21 Sep 10.4 03:12:21 10° NE 03:16:41 25° E 03:16:57 25° E visible
21 Sep 8.8 04:51:48 10° N 04:56:56 51° WNW 04:58:10 42° WSW visible
22 Sep 10.9 02:50:31 10° NE 02:53:46 16° E 02:53:55 16° E visible
22 Sep 8.5 04:29:01 10° NNE 04:34:21 77° WNW 04:35:08 64° SW visible
22 Sep 10.4 06:10:53 10° NNW 06:13:28 14° NW 06:16:03 10° W visible
23 Sep 8.7 04:06:22 10° NNE 04:11:42 71° ESE 04:12:06 67° SE visible
23 Sep 10.0 05:47:22 10° NNW 05:51:09 20° WNW 05:53:18 16° W visible
24 Sep 9.4 03:43:51 10° NNE 03:48:58 46° E 03:49:03 46° ESE visible
24 Sep 9.6 05:24:14 10° N 05:28:45 29° WNW 05:30:16 25° W visible
25 Sep 10.1 03:21:31 10° NE 03:26:01 30° E 03:26:01 30° E visible
25 Sep 9.0 05:01:16 10° N 05:06:16 43° WNW 05:07:14 39° W visible
26 Sep 10.8 02:59:29 10° NE 03:02:59 20° E 03:02:59 20° E visible
26 Sep 8.5 04:38:26 10° N 04:43:43 65° WNW 04:44:11 61° W visible
26 Sep 10.5 06:20:56 10° NNW 06:22:41 12° NW 06:24:27 10° WNW visible
27 Sep 11.2 02:38:10 10° ENE 02:39:56 12° E 02:39:56 12° E visible
27 Sep 8.5 04:15:44 10° NNE 04:21:06 84° ESE 04:21:09 84° ESE visible
27 Sep 10.2 05:57:04 10° NNW 06:00:24 17° WNW 06:02:21 14° W visible
28 Sep 9.2 03:53:09 10° NNE 03:58:06 54° E 03:58:06 54° E visible
28 Sep 9.7 05:33:48 10° N 05:38:02 25° WNW 05:39:19 22° W visible
29 Sep 9.9 03:30:44 10° NNE 03:35:04 35° E 03:35:04 35° E visible
29 Sep 9.2 05:10:46 10° N 05:15:35 36° WNW 05:16:16 35° W visible
